FENGYUN 1C DEB, 31565

Orbit data source: Space-Track

FENGYUN 1C DEB, 31565 is space debris in SSO originally from a launch on Mon, 10 May 1999 UTC launched from the Taiyaun Space Center, China (TSC). Fengyun 1C debris stems from the Chinese weather satellite Fengyun-1C, which was intentionally destroyed by a Chinese anti-satellite missile in 2007. This event dramatically increased the amount of space debris, with thousands of trackable fragments posing hazards to satellites and human spaceflight. The Fengyun 1C debris cloud has become a focal point in discussions about space sustainability and the need for international regulations to prevent the creation of new debris.

Loading next visibility...
Identifier
31565, 1999-025BZG
Orbit
SSO
Country
Flag of CNCN / PRC
Related business
Manufacturer
Unknown
Mission
Spacecraft
Bus & Motor
Unknown
Mass
Unknown
Launch date (UTC)
1999-05-10 (27 years ago)
Launch vehicle
Unknown
Launch site
Taiyaun Space Center, China (TSC)
Object type
Payload
Rocket body
Debris
Shape & HBR
Unknown shape, 0.1 m
Radar Cross Section
Small (<0.1 m²)

Expand to show TLE details & history
Last TLE update: 2 days ago

TLE from 2 days ago
0 FENGYUN 1C DEB
1 31565U 99025BZG 26163.02592166  .00006748  00000-0  20184-2 0  9996
2 31565 100.7147  85.6556 0048302 239.8551 119.7840 14.42657138669649
Epoch: 2026-06-12T00:37Z
TLE epoch observation values (Epoch: 2026-06-12T00:37:19.631Z)
Latitude
0.00001°
Longitude
175.96252°
Altitude
769.836 km
Speed
7.46 km/s
True Right ascension
05h 42m 37s
True Declination
0° 00' 00"
Sunlit
Object was in daylight at epoch
Visualization orbit readout
Latitude
Unknown
Longitude
Unknown
Altitude
Unknown
Speed
Unknown
Apparent Right ascension
Unknown
Apparent Declination
Unknown
Sunlit
N/A
Visualization observer readout
Local Sidereal Time
04:20:42
Azimuth
Unknown
Elevation
Unknown
Doppler factor
Unknown
Orbital elements
Apogee altitude
781.384 km
Perigee altitude
712.553 km
Semi-major axis
7,125.106 km
Eccentricity
0.00483
Inclination
100.7147°
RAAN
85.6556°
Arg. of periapsis
239.8551°
True anomaly
120.26294°
Mean anomaly
119.784°
Eccentric anomaly
120.02362°
Mean motion
3.60874 °/min
Orbital period
99.76 mins
BSTAR
0.0020184
Loading maneuver chart data...
Computing Atmospheric mass density...

Documentation

Showing up to 5 results
|